Change the Weather History Date:

Tuesday, January 1, 2013

  Actual Average Record
Temperature  
Mean Temperature 51 °F 49 °F  
Max Temperature 56 °F 59 °F 82 °F (2006)
Min Temperature 45 °F 38 °F 15 °F (1928)
Degree Days  
Heating Degree Days 14 17  
Month to date heating degree days 14 17  
Since 1 July heating degree days 631 795  
Cooling Degree Days 0 0  
Month to date cooling degree days 0 0  
Year to date cooling degree days 0 0  
Moisture  
Dew Point 46 °F    
Average Humidity 82    
Maximum Humidity 93    
Minimum Humidity 71    
Precipitation  
Precipitation 0.21 in 0.13 in 2.07 in (1999)
Month to date precipitation 0.21 0.13  
Year to date precipitation 0.21 0.13  
Snow  
Snow 0.00 in - - ()
Month to date snowfall 0.0  
Since 1 July snowfall 0.0  
Snow Depth 0.00 in    
Sea Level Pressure  
Sea Level Pressure 30.07 in    
Wind  
Wind Speed 7 mph (NNW)    
Max Wind Speed 13 mph    
Max Gust Speed 20 mph    
Visibility 8 miles    
Events Rain    
T = Trace of Precipitation, MM = Missing Value Source: NWS Daily Summary

Daily Weather History Graph

Daily Weather History Graph

Search for Another Location

Airport or City:

Trip Planner

Search our weather history database for the weather conditions in past years. The results will help you decide how hot, cold, wet, or windy it might be!

Date:

Astronomy

Jan. 01, 2013 Rise Set
Actual Time 7:17 AM CST 5:27 PM CST
Civil Twilight 6:51 AM CST 5:54 PM CST
Nautical Twilight 6:21 AM CST 6:24 PM CST
Astronomical Twilight 5:51 AM CST 6:54 PM CST
Moon 9:41 PM CST (1/1) 9:47 AM CST (1/1)
Length of Visible Light 11h 03m
Length of Day
10h 09m
Waning Gibbous, 83% of the Moon is Illuminated
Jan 1
Waning Gibbous
Jan 4
Last Quarter
Jan 11
New
Jan 18
First Quarter
Jan 26
Full

Hourly Weather History & Observations

Time (CST) Temp. Windchill Dew Point Humidity Pressure Visibility Wind Dir Wind Speed Gust Speed Precip Events Conditions
12:00 AM 55.4 °F - 53.6 °F 94% 29.98 in 10.0 mi NNE 3.5 mph - 0.00 in Rain Light Rain
12:21 AM 55.4 °F - 53.6 °F 94% 29.98 in 4.0 mi Calm Calm - 0.03 in Rain Rain
12:34 AM 55.4 °F - 53.6 °F 94% 29.98 in 2.0 mi North 5.8 mph - 0.09 in Rain Heavy Rain
12:44 AM 55.4 °F - 53.6 °F 94% 29.99 in 1.8 mi NNW 5.8 mph - 0.17 in Rain Heavy Rain
12:53 AM 55.9 °F - 53.1 °F 90% 29.99 in 3.0 mi North 3.5 mph - 0.18 in Rain Light Rain
1:03 AM 55.4 °F - 53.6 °F 94% 29.99 in 4.0 mi NNW 3.5 mph - 0.01 in Rain Light Rain
1:17 AM 55.4 °F - 53.6 °F 94% 29.97 in 5.0 mi North 6.9 mph - 0.01 in Rain Light Rain
1:53 AM 55.9 °F - 53.1 °F 90% 30.00 in 10.0 mi NNW 8.1 mph - 0.01 in Rain Light Rain
2:10 AM 55.4 °F - 51.8 °F 88% 30.00 in 10.0 mi North 6.9 mph - 0.00 in Rain Light Rain
2:53 AM 55.0 °F - 51.1 °F 86% 29.99 in 10.0 mi North 8.1 mph - 0.00 in   Overcast
3:53 AM 54.0 °F - 50.0 °F 86% 30.00 in 6.0 mi North 9.2 mph - 0.01 in Rain Light Rain
4:53 AM 53.1 °F - 48.0 °F 83% 29.98 in 10.0 mi NE 5.8 mph - 0.00 in Rain Light Rain
5:44 AM 53.6 °F - 48.2 °F 82% 29.99 in 10.0 mi NNE 5.8 mph - 0.00 in   Overcast
5:53 AM 53.1 °F - 48.9 °F 86% 29.99 in 10.0 mi NNE 4.6 mph - 0.00 in   Overcast
6:02 AM 53.6 °F - 48.2 °F 82% 30.00 in 10.0 mi NNE 5.8 mph - N/A   Overcast
6:53 AM 51.8 °F - 48.2 °F 88% 30.03 in 10.0 mi NNW 5.8 mph - N/A   Overcast
7:53 AM 51.1 °F - 46.9 °F 86% 30.08 in 5.0 mi NNW 5.8 mph - 0.00 in Rain Light Rain
8:53 AM 51.1 °F - 46.9 °F 86% 30.10 in 8.0 mi NW 5.8 mph - 0.01 in   Overcast
9:53 AM 50.0 °F - 46.0 °F 86% 30.12 in 5.0 mi NNW 8.1 mph - 0.00 in Rain Light Rain
10:53 AM 48.9 °F - 45.0 °F 86% 30.14 in 4.0 mi NNW 8.1 mph - 0.00 in   Overcast
11:32 AM 50.0 °F - 44.6 °F 82% 30.13 in 8.0 mi North 9.2 mph - N/A   Overcast
11:53 AM 50.0 °F - 45.0 °F 83% 30.10 in 7.0 mi North 6.9 mph - N/A   Overcast
12:13 PM 50.0 °F - 44.6 °F 82% 30.08 in 7.0 mi Variable 5.8 mph - N/A   Overcast
12:21 PM 51.8 °F - 44.6 °F 76% 30.08 in 8.0 mi North 6.9 mph - N/A   Overcast
12:53 PM 51.1 °F - 45.0 °F 80% 30.08 in 8.0 mi NNW 4.6 mph - N/A   Overcast
1:20 PM 51.8 °F - 44.6 °F 76% 30.09 in 9.0 mi NW 6.9 mph - N/A   Overcast
1:53 PM 51.1 °F - 44.1 °F 77% 30.09 in 10.0 mi NNW 8.1 mph - N/A   Overcast
2:40 PM 51.8 °F - 44.6 °F 76% 30.09 in 10.0 mi Variable 6.9 mph 17.3 mph N/A   Overcast
2:53 PM 52.0 °F - 44.1 °F 74% 30.09 in 10.0 mi NNW 8.1 mph 17.3 mph N/A   Overcast
3:53 PM 51.8 °F - 42.8 °F 71% 30.12 in 10.0 mi NNW 9.2 mph - N/A   Overcast
5:53 PM 48.9 °F - 41.0 °F 74% 30.16 in 10.0 mi NNW 8.1 mph - N/A   Overcast
6:53 PM 46.9 °F - 39.0 °F 74% 30.18 in 10.0 mi North 10.4 mph - N/A   Overcast
7:53 PM 46.9 °F - 39.0 °F 74% 30.20 in 10.0 mi NNW 6.9 mph - N/A   Overcast
8:53 PM 46.0 °F 41.0 °F 37.9 °F 73% 30.20 in 10.0 mi NNW 10.4 mph 16.1 mph N/A   Overcast
9:53 PM 46.0 °F 43.1 °F 37.0 °F 71% 30.21 in 10.0 mi North 5.8 mph - N/A   Overcast
10:53 PM 45.0 °F 41.8 °F 37.0 °F 74% 30.22 in 10.0 mi NNW 5.8 mph - N/A   Overcast
11:53 PM 45.0 °F 42.6 °F 36.0 °F 71% 30.22 in 10.0 mi NNW 4.6 mph - N/A   Overcast